Wind_Speed
4 2 12 16 15 16 16 12 10 7 7 8 8 9 10 11 11 11 12 12 12 13 12 10 8 7 7 5 6 9 9 8 10 11 12 12 13 13 11 11 10 9 12
3 4 12 16 15 13 12 11 8 6 5 6 7 8 8 9 9 8 9 9 9 8 6 5 4 4 4 4 5 7 7 8 9 10 11 12 12 13 13 12 10 8 9
4 6 10 15 15 12 11 9 7 6 5 9 6 7 8 8 8 7 5 4 3 1 1 1 3 4 6 6 6 3 4 6 8 10 11 13 13 14 14 13 12 12 12
5 5 11 16 15 13 10 8 7 7 7 9 6 5 4 3 3 4 4 2 1 2 3 3 3 4 4 3 5 5 6 9 7 9 12 13 14 16 17 17 17 16 16
9 3 8 16 18 14 10 9 8 8 9 7 4 2 1 2 3 4 4 3 2 2 4 4 4 4 4 3 5 6 4 8 11 11 13 15 15 14 17 17 19 18 18
7 6 5 15 19 16 13 10 10 9 9 8 5 2 0 2 5 6 7 6 5 5 6 6 6 6 7 6 6 8 9 8 10 12 12 13 13 14 16 15 15 15 16
3 3 6 11 19 17 13 10 9 8 8 8 5 2 2 3 5 6 7 6 6 5 5 7 9 10 9 9 10 11 11 9 9 10 11 12 14 15 16 15 13 13 13
3 4 5 7 19 18 14 11 8 8 7 6 4 3 2 2 4 5 6 7 7 6 6 6 7 9 10 11 12 13 12 10 10 13 14 14 16 16 16 16 13 12 15
3 4 8 5 16 18 15 12 9 8 8 8 7 5 4 3 5 6 7 7 6 6 7 8 9 9 10 11 11 12 13 15 15 15 15 14 15 17 16 15 16 15 15
5 1 8 9 16 19 17 14 10 10 10 11 10 8 7 8 9 10 10 11 11 11 10 9 10 12 14 15 15 16 15 15 15 14 17 16 15 17 17 17 18 20 21
9 5 7 12 13 21 21 18 15 13 12 14 14 12 11 11 11 12 13 15 16 16 17 17 16 14 15 17 19 20 20 20 20 17 18 19 19 19 19 20 19 21 23
12 10 8 10 15 20 23 23 21 18 16 17 17 17 17 15 15 15 16 17 17 18 19 21 21 21 20 20 21 22 24 24 25 24 23 22 20 20 22 22 22 23 25
14 13 13 12 14 17 25 26 26 24 22 20 21 21 21 21 20 20 21 22 22 22 23 23 25 26 25 25 24 25 26 26 26 26 27 26 25 24 25 24 26 27 29
16 14 13 15 15 16 22 28 28 27 27 25 25 24 25 26 26 27 27 27 28 28 28 27 28 28 28 28 28 28 28 28 28 27 27 28 29 29 28 28 30 31 32
18 15 13 13 16 16 17 26 28 29 29 28 27 28 29 29 30 31 33 34 34 33 31 29 28 28 28 30 31 31 31 30 30 29 26 27 28 29 30 31 32 31 33
20 20 18 14 15 14 15 20 24 27 29 30 30 30 32 33 35 33 32 32 31 30 28 25 24 25 27 28 30 30 29 30 30 27 26 25 26 29 31 31 32 33 34
17 17 19 19 16 15 15 16 19 22 26 27 29 31 31 32 31 29 26 24 25 25 24 24 24 24 26 28 29 30 30 30 31 29 27 25 26 29 31 32 32 35 37
15 16 17 17 16 18 20 20 19 20 19 20 24 26 28 29 28 27 26 27 25 24 25 27 28 26 25 27 28 29 28 28 29 30 29 30 29 29 31 33 34 38 41
24 13 17 17 13 14 18 26 25 23 21 20 24 26 27 29 29 25 24 24 26 25 25 26 27 28 27 28 28 28 27 27 28 29 28 30 31 35 35 37 38 40 43
26 20 12 16 17 14 19 24 27 26 27 25 25 26 26 26 25 26 26 25 25 23 24 24 23 25 25 27 29 27 27 28 27 28 30 33 36 38 39 41 42 43 45
24 25 19 15 18 19 20 22 24 27 27 27 27 28 24 23 22 22 23 25 25 25 24 23 24 24 24 27 30 29 30 29 28 28 33 36 39 43 44 44 46 46 47
24 24 21 16 14 17 20 21 26 28 28 29 29 27 26 25 24 24 24 24 26 26 24 26 28 28 28 31 34 37 35 34 33 36 40 41 46 49 49 52 54 54 56
27 26 23 20 15 16 18 22 26 27 27 29 29 31 32 28 26 26 27 26 26 27 29 31 33 35 37 39 39 46 47 42 40 41 44 47 48 51 53 57 59 54 57
29 28 27 24 19 16 17 19 23 26 29 29 28 28 26 26 26 27 28 28 29 29 32 36 38 44 44 45 46 41 47 47 48 48 47 50 51 53 55 54 54 59 49
31 31 30 28 25 20 18 19 23 24 26 28 30 25 25 26 27 27 30 30 31 31 33 40 41 44 46 47 48 49 49 52 55 58 58 52 53 59 64 36 57 45 34
35 35 32 29 29 27 27 25 25 24 27 28 28 27 28 27 29 29 30 33 36 39 41 43 46 48 50 54 55 57 57 59 60 57 57 57 55 56 53 50 37 36 29
Wind_Direction
322 214 158 146 134 129 126 125 123 124 127 122 114 108 102 99 100 98 97 98 103 105 105 106 101 87 87 71 75 38 34 44 44 43 46 38 39 28 20 23 22 23 14
305 232 179 159 150 145 137 137 137 141 135 126 116 104 102 99 97 89 95 92 104 105 102 112 102 83 64 55 67 46 38 37 34 32 25 15 23 17 6 6 9 11 3
296 236 198 173 163 163 153 145 147 149 149 136 128 107 103 99 95 98 95 84 87 82 33 337 360 33 50 38 27 28 15 21 6 9 7 6 6 4 350 343 344 348 347
291 226 204 182 175 173 171 163 159 152 151 150 132 109 102 89 70 44 46 71 271 288 301 301 314 341 8 13 354 359 333 333 346 345 342 347 343 341 334 334 334 334 330
304 247 209 194 185 185 184 184 173 167 160 175 169 152 101 22 353 340 338 312 299 282 298 300 301 296 301 324 320 321 315 313 313 317 321 328 329 326 321 324 322 324 323
309 282 237 203 195 191 193 192 188 184 178 181 188 200 294 12 17 7 359 343 315 293 288 287 290 293 288 295 293 299 313 320 310 310 309 315 325 321 315 315 320 325 323
302 252 265 213 201 198 199 204 202 198 194 191 188 161 63 13 0 355 347 344 341 326 305 298 295 286 284 289 284 283 291 301 309 314 319 327 322 322 323 324 323 319 320
10 207 246 245 203 204 203 207 217 216 213 212 202 185 194 71 16 359 347 325 324 323 313 302 298 296 292 287 281 278 279 287 300 307 314 322 320 321 318 320 318 310 316
50 200 228 220 211 211 212 213 217 230 230 217 212 220 231 294 317 322 321 328 325 321 314 302 292 288 291 292 287 283 287 296 300 300 300 306 311 315 316 315 315 316 316
358 236 219 234 206 212 218 222 228 232 225 214 223 228 253 281 301 309 312 313 314 312 304 295 289 283 281 284 286 287 288 291 297 302 298 299 297 300 309 312 309 309 309
345 317 232 223 230 213 214 226 231 236 234 228 228 235 253 269 281 293 297 301 300 301 303 302 299 292 286 283 283 286 290 292 293 294 295 294 291 289 295 296 300 302 303
335 326 281 237 229 225 222 221 224 233 238 240 244 248 253 261 267 273 278 286 288 287 286 289 291 292 294 291 287 284 283 285 289 293 293 295 292 287 287 292 297 301 301
318 319 316 265 242 236 227 227 231 234 237 241 252 258 266 270 272 274 278 281 284 283 285 284 282 282 283 285 287 287 285 284 283 283 285 287 287 286 289 296 298 299 298
313 313 310 308 279 253 235 230 232 238 242 247 248 256 265 272 278 281 283 285 286 287 285 283 279 278 279 282 284 283 283 282 282 281 281 280 281 284 288 292 294 294 293
297 295 297 300 297 285 263 240 237 243 247 250 255 260 265 269 275 281 285 287 287 287 286 285 284 282 281 283 285 286 287 287 285 284 283 283 283 282 286 289 290 292 292
276 283 288 282 284 284 275 269 256 256 258 260 263 264 268 274 279 279 282 288 289 288 288 287 286 286 284 283 284 283 282 284 287 288 286 284 284 284 284 286 288 290 291
278 264 267 273 276 268 272 269 270 268 268 270 272 271 273 277 281 285 288 287 288 290 290 291 288 287 288 287 285 285 285 284 284 285 287 286 280 280 285 288 291 292 292
295 291 276 263 259 272 277 266 257 261 265 273 278 280 283 283 285 286 283 283 280 280 284 286 287 286 285 287 287 286 287 286 286 285 285 280 280 278 280 285 287 289 292
293 279 278 278 264 258 265 271 270 265 265 273 278 282 284 287 291 290 285 279 279 276 274 276 275 279 283 281 277 279 282 282 282 283 283 284 286 287 287 284 283 285 288
292 295 281 285 279 264 257 264 272 278 280 278 275 276 276 281 285 288 287 285 283 283 286 283 277 273 270 272 274 274 274 274 276 282 286 286 283 284 283 282 285 283 283
286 290 284 288 287 278 272 268 271 276 280 283 283 283 281 278 279 282 282 285 283 277 275 280 281 278 277 277 278 277 277 277 280 285 282 283 286 284 280 279 277 276 276
278 280 284 283 278 275 275 274 275 277 281 285 286 281 278 280 282 279 276 278 287 290 283 279 275 274 273 276 279 279 280 279 287 284 284 281 280 284 283 282 280 278 274
275 276 276 280 278 276 271 268 270 274 273 274 274 275 278 280 280 282 279 277 280 285 289 286 287 282 279 280 278 286 286 286 283 283 283 286 285 283 284 282 278 277 260
271 275 274 276 274 268 270 271 274 273 274 274 269 271 275 278 280 282 282 279 280 285 292 293 290 288 284 288 290 285 290 294 292 290 285 284 283 284 280 285 290 273 283
265 269 268 269 267 265 266 269 270 276 276 271 271 271 273 278 280 279 281 285 289 291 292 292 300 301 302 300 300 299 295 294 295 294 292 290 285 283 281 288 288 288 277
271 265 263 263 263 260 261 262 265 267 275 282 278 279 276 277 278 280 284 292 295 296 297 296 297 297 298 298 299 299 298 295 298 297 293 291 293 288 285 288 298 301 290
Height
5871 5872 5873 5873 5874 5875 5876 5878 5880 5881 5881 5881 5881 5881 5881 5881 5881 5881 5881 5882 5882 5881 5881 5881 5881 5881 5880 5880 5879 5878 5877 5876 5875 5874 5873 5873 5871 5870 5869 5868 5867 5866 5865
5872 5872 5874 5875 5876 5878 5878 5879 5881 5882 5883 5883 5883 5883 5883 5883 5883 5883 5883 5883 5884 5883 5883 5883 5883 5882 5881 5881 5880 5879 5878 5877 5876 5876 5875 5874 5872 5871 5871 5869 5868 5868 5867
5873 5872 5875 5877 5877 5879 5879 5881 5882 5883 5884 5885 5886 5886 5885 5885 5885 5885 5885 5885 5885 5884 5884 5884 5883 5883 5882 5882 5881 5880 5879 5878 5877 5876 5876 5875 5874 5872 5872 5871 5869 5868 5867
5873 5873 5875 5877 5878 5879 5880 5882 5882 5883 5885 5886 5887 5887 5887 5887 5886 5886 5885 5885 5885 5884 5884 5883 5883 5882 5882 5882 5881 5880 5879 5878 5878 5877 5876 5875 5874 5872 5872 5870 5869 5867 5866
5874 5874 5874 5876 5877 5879 5881 5882 5883 5884 5885 5886 5887 5887 5887 5887 5887 5886 5885 5885 5884 5884 5883 5882 5882 5881 5881 5881 5880 5880 5880 5878 5877 5877 5875 5875 5874 5872 5871 5869 5867 5866 5865
5874 5874 5874 5876 5877 5878 5880 5882 5883 5884 5885 5886 5887 5887 5887 5887 5886 5885 5885 5884 5884 5883 5882 5881 5880 5880 5880 5879 5879 5879 5879 5879 5876 5875 5875 5874 5872 5871 5870 5868 5866 5865 5863
5872 5874 5875 5876 5879 5880 5881 5883 5884 5885 5886 5886 5886 5887 5887 5887 5886 5886 5885 5883 5882 5882 5882 5881 5880 5879 5878 5877 5877 5877 5877 5877 5875 5874 5873 5872 5871 5869 5868 5866 5865 5863 5862
5872 5872 5874 5877 5878 5880 5882 5883 5884 5885 5886 5887 5887 5887 5887 5886 5886 5885 5884 5883 5881 5880 5880 5879 5878 5877 5877 5876 5876 5875 5875 5875 5874 5872 5870 5870 5868 5866 5865 5863 5862 5860 5859
5871 5871 5873 5874 5879 5880 5882 5883 5883 5884 5884 5885 5886 5886 5886 5885 5885 5884 5883 5882 5881 5879 5878 5877 5876 5875 5874 5874 5873 5873 5872 5872 5871 5870 5868 5867 5865 5863 5862 5860 5859 5857 5856
5873 5872 5872 5874 5873 5879 5882 5883 5884 5884 5883 5884 5884 5884 5884 5884 5883 5882 5881 5880 5878 5877 5876 5875 5874 5873 5872 5871 5870 5869 5868 5868 5868 5867 5864 5863 5862 5860 5859 5857 5856 5854 5852
5874 5873 5872 5872 5874 5874 5877 5881 5882 5882 5882 5882 5881 5881 5881 5880 5880 5879 5879 5877 5876 5875 5874 5872 5871 5870 5869 5868 5867 5866 5865 5864 5863 5863 5860 5859 5858 5856 5855 5853 5852 5851 5849
5873 5873 5872 5871 5871 5872 5874 5875 5876 5879 5880 5880 5880 5879 5877 5876 5876 5875 5875 5874 5873 5872 5870 5869 5867 5866 5865 5864 5863 5861 5860 5859 5858 5858 5856 5854 5853 5852 5850 5849 5848 5846 5844
5871 5871 5871 5871 5869 5870 5870 5871 5873 5874 5874 5876 5877 5877 5877 5875 5874 5872 5871 5869 5868 5867 5865 5864 5863 5862 5860 5859 5858 5856 5855 5854 5853 5852 5851 5850 5848 5847 5846 5844 5842 5840 5838
5870 5870 5870 5870 5869 5868 5867 5869 5869 5870 5870 5871 5870 5871 5872 5872 5871 5869 5868 5866 5864 5862 5860 5858 5857 5855 5855 5854 5852 5851 5849 5847 5847 5846 5845 5844 5843 5841 5840 5838 5836 5834 5831
5867 5867 5866 5867 5867 5867 5866 5865 5866 5867 5867 5867 5867 5867 5866 5865 5865 5865 5863 5862 5859 5857 5855 5853 5851 5850 5849 5847 5846 5845 5843 5842 5840 5840 5840 5838 5837 5835 5834 5832 5830 5827 5825
5866 5864 5862 5862 5863 5863 5864 5863 5864 5864 5864 5863 5863 5862 5861 5861 5860 5858 5856 5854 5853 5851 5849 5847 5845 5844 5842 5841 5839 5838 5837 5834 5832 5832 5833 5832 5831 5829 5828 5826 5822 5819 5817
5863 5863 5861 5858 5857 5857 5859 5859 5858 5859 5859 5859 5858 5857 5855 5853 5852 5852 5850 5848 5846 5846 5844 5842 5840 5838 5836 5834 5833 5831 5830 5828 5827 5825 5825 5824 5824 5822 5820 5818 5815 5812 5810
5857 5856 5856 5855 5853 5851 5851 5852 5854 5852 5853 5853 5852 5851 5849 5847 5846 5846 5843 5841 5840 5840 5839 5836 5834 5832 5830 5828 5826 5824 5822 5820 5818 5817 5818 5816 5815 5814 5812 5809 5806 5802 5798
5849 5852 5850 5850 5848 5847 5846 5844 5844 5846 5847 5846 5844 5844 5842 5840 5837 5837 5837 5834 5832 5831 5830 5829 5828 5826 5825 5821 5819 5818 5818 5817 5814 5812 5810 5809 5807 5804 5802 5799 5797 5795 5790
5839 5842 5845 5845 5844 5842 5840 5839 5838 5838 5838 5838 5838 5837 5836 5835 5833 5831 5829 5828 5825 5823 5822 5820 5819 5818 5817 5815 5813 5813 5809 5808 5807 5805 5802 5799 5798 5797 5794 5793 5790 5787 5784
5837 5835 5838 5840 5838 5836 5836 5834 5833 5832 5832 5832 5831 5831 5830 5829 5828 5827 5824 5821 5819 5818 5816 5813 5811 5809 5808 5805 5802 5801 5800 5798 5798 5797 5793 5789 5786 5783 5780 5780 5777 5775 5772
5834 5832 5830 5831 5833 5831 5830 5829 5828 5827 5825 5824 5824 5822 5821 5821 5820 5819 5818 5815 5813 5810 5809 5806 5804 5801 5800 5797 5793 5789 5790 5791 5790 5786 5782 5779 5774 5770 5769 5767 5763 5760 5755
5828 5827 5826 5826 5826 5825 5824 5823 5823 5821 5820 5818 5817 5816 5815 5814 5813 5811 5810 5809 5807 5804 5801 5799 5797 5794 5789 5789 5783 5777 5775 5776 5776 5775 5769 5767 5763 5757 5754 5749 5745 5721 5720
5820 5820 5820 5819 5819 5818 5817 5816 5815 5814 5813 5811 5810 5809 5808 5807 5805 5804 5803 5801 5800 5798 5796 5792 5789 5785 5780 5777 5771 5770 5766 5762 5758 5756 5757 5752 5749 5744 5738 5735 5729 5729 5726
5812 5813 5813 5813 5812 5813 5811 5811 5808 5807 5806 5804 5804 5802 5801 5800 5799 5797 5795 5793 5792 5791 5789 5785 5780 5777 5771 5766 5763 5759 5757 5750 5748 5740 5736 5737 5734 5721 5714 5713 5719 5714 5712
5802 5804 5805 5806 5805 5806 5806 5804 5803 5801 5800 5800 5797 5795 5794 5794 5792 5791 5788 5786 5784 5781 5779 5777 5772 5768 5763 5756 5753 5749 5743 5736 5732 5726 5721 5719 5716 5712 5701 5697 5703 5706 5706